#timestamp,LO_Frequency,Hit,StdDev 
1621231215.5,286046995.8,N
1621231235.3,286046993.3,N
1621231255.2,286046996.8,N
1621231275.0,286046998.2,N
1621231275.9,286046998.2,N
1621231295.8,286046995.9,N
1621231315.6,286046995.7,N
1621231335.4,286046995.3,N
1621231355.3,286046996.3,N
1621231375.1,286046993.8,N
1621231395.8,286046996.2,N
1621231415.7,286046997.3,N
1621231435.5,286046995.4,N
1621231455.4,286046990.2,N
1621231475.2,286046993.3,N
1621231495.1,286047002.6,N
1621231496.0,286047002.6,N
1621231515.8,286046999.8,N
1621231535.6,286046998.7,N
1621231555.5,286047001.2,N
1621231575.3,286047000.5,N
1621231595.2,286047002.1,N
1621231615.9,286047004.0,N
1621231635.7,286047005.8,N
1621231655.6,286047006.9,N
1621231675.4,286047004.7,N
1621231695.2,286047005.5,N
1621231715.1,286047002.8,N
1621231716.0,286047002.8,N
1621231735.8,286047002.3,N
1621231755.7,286047001.8,N
1621231775.5,286046998.1,N
1621231795.3,286047000.8,N
1621231815.2,286047004.3,N
1621231835.0,286047007.4,N
1621231835.9,286047007.4,N
1621231855.8,286047004.5,N
1621231875.6,286047008.7,N
1621231895.4,286047008.3,N
1621231915.3,286047008.8,N
1621231935.1,286047006.5,N
1621231955.9,286047006.6,N
1621231975.7,286047008.4,N
1621231995.5,286047005.3,N
1621232015.4,286047004.1,N
1621232035.2,286047001.8,N
1621232055.0,286047002.4,N
1621232055.9,286047002.4,N
1621232075.8,286046996.5,N
1621232095.6,286046995.0,N
1621232115.5,286046999.5,N
1621232135.3,286046998.0,N
1621232155.1,286046993.6,N
1621232175.9,286046992.3,N
1621232195.7,286046993.3,N
1621232215.6,286046993.7,N
1621232235.4,286046995.6,N
1621232255.2,286046991.7,N
1621232275.1,286046995.8,N
1621232276.0,286046995.8,N
1621232295.8,286046993.3,N
1621232315.7,286047002.3,N
1621232335.5,286047006.9,N
1621232355.3,286047002.8,N
1621232375.2,286046996.5,N
1621232395.0,286046997.4,N
1621232395.9,286046997.4,N
1621232415.7,286046995.5,N
1621232435.6,286046994.9,N
1621232455.4,286046995.9,N
1621232475.3,286046993.6,N
1621232495.1,286046992.3,N
1621232496.0,286046992.3,N
1621232515.8,286046994.3,N
1621232535.7,286046996.3,N
1621232555.5,286046997.0,N
1621232575.3,286047002.6,N
1621232595.2,286046999.4,N
1621232615.0,286047000.7,N
1621232615.9,286047000.7,N
1621232635.8,286046999.5,N
1621232655.6,286046999.3,N
1621232675.4,286046992.1,N
1621232695.3,286046987.4,Y
1621232715.1,286046987.9,P
1621232735.9,286046989.2,N
1621232755.7,286046989.8,N
1621232775.5,286046987.3,Y
1621232795.4,286046996.8,P
1621232815.2,286047002.3,N
1621232835.1,286046999.0,N
1621232836.0,286046999.0,N
1621232855.8,286046994.5,N
1621232875.6,286046990.2,N
1621232895.5,286046994.1,N
1621232915.3,286046998.2,N
1621232935.1,286047000.2,N
1621232955.9,286047001.0,N
1621232975.7,286046998.5,N
1621232995.6,286046995.3,N
1621233015.4,286046995.0,N
1621233035.2,286046996.3,N
1621233055.1,286046996.5,N
1621233056.0,286046996.5,N
1621233075.8,286047009.0,N
1621233095.7,286047007.4,N
1621233115.5,286047000.3,N
1621233135.3,286046998.3,N
1621233155.2,286046997.0,N
1621233175.0,286046996.4,N
1621233175.9,286046996.4,N
1621233195.7,286046991.7,N
1621233215.6,286046994.6,N
1621233235.4,286046990.3,N
1621233255.3,286046986.1,Y
1621233275.1,286046986.2,P
1621233295.9,286046986.5,N
1621233315.7,286046985.0,N
1621233335.5,286046984.9,Y
1621233355.4,286046999.6,P
1621233375.2,286046997.4,N
1621233395.1,286046999.7,N
1621233396.0,286046999.7,N
1621233415.8,286047002.5,N
1621233435.7,286047001.1,N
1621233455.5,286046997.2,N
1621233475.3,286046997.1,N
1621233495.2,286046999.0,N
1621233515.0,286046997.1,N
1621233515.9,286046997.1,N
1621233535.8,286046996.1,N
1621233555.6,286046997.6,N
1621233575.4,286046994.3,N
1621233595.3,286046992.4,N
1621233615.1,286046988.5,Y
1621233635.8,286046996.1,P
1621233655.7,286047000.2,N
1621233675.5,286046996.5,N
1621233695.4,286046994.5,Y
1621233715.2,286046993.6,P
1621233735.0,286046992.7,P
1621233735.9,286046992.7,P
1621233755.8,286046990.9,Y
1621233775.6,286046995.8,P
1621233795.5,286046993.9,P
1621233815.3,286046997.8,N
1621233835.1,286047001.1,N
1621233855.9,286047004.4,N
1621233875.7,286047003.0,N
1621233895.6,286047011.7,N
1621233915.4,286047011.1,N
1621233935.2,286047012.6,N
1621233955.1,286047015.6,N
1621233956.0,286047015.6,N
1621233975.8,286047013.2,N
1621233995.6,286047015.6,N
1621234015.5,286047014.1,N
1621234035.3,286047014.8,N
1621234055.2,286047015.0,N
1621234075.9,286047015.7,N
1621234095.7,286047014.3,N
1621234115.6,286047011.3,N
1621234135.4,286047008.2,N
1621234155.3,286047009.5,N
1621234175.1,286047006.7,N
1621234176.0,286047006.7,N
1621234195.8,286047015.1,N
1621234215.7,286047024.1,Y
1621234235.5,286047019.6,P
1621234255.3,286047015.4,N
1621234275.2,286047009.9,N
1621234295.0,286047009.3,N
1621234295.9,286047009.3,N
1621234315.8,286047008.9,N
1621234335.6,286047005.0,N
1621234355.4,286047000.4,N
1621234375.3,286046993.3,N
1621234395.1,286046995.5,N
1621234415.9,286046996.7,N
1621234435.7,286046992.2,N
1621234455.5,286046988.8,N
1621234475.4,286046987.9,N
1621234495.2,286046986.0,N
1621234515.0,286046989.4,N
1621234515.9,286046989.4,N
1621234535.8,286046987.2,N
1621234555.6,286046989.8,N
1621234575.5,286046986.2,N
1621234595.3,286046985.9,N
1621234615.1,286046980.8,N
1621234635.9,286046987.7,N
1621234655.7,286046986.3,N
1621234675.5,286046982.5,N
1621234695.4,286046980.9,N
1621234715.2,286046981.0,N
1621234735.1,286046978.8,N
1621234736.0,286046978.8,N
1621234755.8,286046973.9,N
1621234775.6,286046972.7,N
1621234795.5,286046977.4,N
